Regional Weather Roundup
Issued by NWS Charleston, SC

Current Version | Previous Version | Graphics & Text | Print | Product List | Glossary On
Versions: 1 2 3 4 5 6 7 8 9 10 11 12 13 14 15 16 17 18 19 20 21 22 23 24 25 26 27 28 29 30 31 32 33 34 35 36 37 38 39 40 41 42 43 44 45 46 47 48 49 50
777
ASUS42 KCHS 110828
RWRCHS

REGIONAL WEATHER ROUNDUP
NATIONAL WEATHER SERVICE CHARLESTON SC
300 AM EST THU FEB 11 2016

NOTE: "FAIR" INDICATES FEW OR NO CLOUDS BELOW 12,000 FEET WITH NO
SIGNIFICANT WEATHER AND/OR OBSTRUCTIONS TO VISIBILITY.

NOT ALL STATIONS ARE QUALITY CONTROLLED BY THE NATIONAL
WEATHER SERVICE. USE DATA WITH CAUTION...ESPECIALLY
DEWPOINT OBSERVATIONS.

SCZ027-030-031-034>040-042>050-110900-
...SOUTHEAST SOUTH CAROLINA...

CITY           SKY/WX    TMP DP  RH WIND       PRES   REMARKS
N CHARLESTON   CLEAR     32  16  51 W6        30.18R WCI  26
WATERFRONT PRK   N/A     34  22  61 VRB3      30.03R
MOUNT PLEASANT FAIR      36  16  44 W6        30.18S WCI  31
JOHNS ISLAND   FAIR      34  18  51 W6        30.19S WCI  29
PINOPOLIS        N/A     34  19  55 W13       30.10R WCI  25
MONCKS CORNER  FAIR      28  10  47 CALM      30.17F
SUMMERVILLE    FAIR      32  19  59 SW3       30.18F
BEAUFORT MCAS  CLEAR     34  19  54 NW5       30.20S WCI  30
BEAUFORT ARPT  FAIR      36  19  51 W7        30.19S HAZE    WCI  30
HILTON HEAD IS CLEAR     36  21  55 W5        30.21R WCI  32
WALTERBORO     SUNNY     32  21  64 CALM      30.19S
ALLENDALE      PTSUNNY   30  19  64 CALM      30.17F

...SOUTHERN MIDLANDS AND PEE DEE...

CITY           SKY/WX    TMP DP  RH WIND       PRES   REMARKS
GEORGETOWN     FAIR      30  18  59 W6        30.18R WCI  24
KINGSTREE      FAIR      28  18  64 CALM      30.17R
ORANGEBURG     CLEAR     32  13  45 W7        30.16S WCI  26
BARNWELL       FAIR      32  16  51 CALM      30.18S
AIKEN          FAIR      30  14  51 W8        30.18S WCI  23
MANNING        FAIR      32  14  47 SW3       30.16S
COLUMBIA       CLEAR     30  13  49 W5        30.16R WCI  25
SUMTER         CLEAR     28  12  52 W3        30.13R
FLORENCE       CLEAR     28  13  53 W5        30.14R WCI  23
MYRTLE BEACH   CLEAR     30  12  47 W7        30.17R WCI  23
N MYRTLE BEACH CLEAR     30  16  56 W5        30.13R WCI  25

$$

GAZ063-065-086>088-099>101-113>116-118-119-134>141-150-110900-
...SOUTHEAST GEORGIA...

CITY           SKY/WX    TMP DP  RH WIND       PRES   REMARKS
SAVANNAH ARPT  CLEAR     31  20  63 W5        30.21S WCI  26
HUNTER AAF     CLEAR     32  20  60 SW7       30.19R WCI  26
FORT STEWART   CLEAR     32  20  59 SW2       30.19S
STATESBORO     CLEAR     32  22  65 CALM      30.19S
SYLVANIA       SUNNY     29  26  88 CALM      30.20S
CLAXTON        FAIR      31  26  81 CALM      30.21S

...CSRA...CENTRAL AND FAR SOUTHEAST GEORGIA...

CITY           SKY/WX    TMP DP  RH WIND       PRES   REMARKS
THOMSON        CLEAR     30  21  68 CALM      30.21S
AUGUSTA-BUSH   PTCLDY    29  14  53 CALM      30.18F
AUGUSTA-DANIEL NOT AVBL
SWAINSBORO     FAIR      30  23  74 CALM      30.20R
VIDALIA        CLEAR     32  23  69 SW3       30.21R
EASTMAN        FAIR      30  22  71 CALM      30.24S
HAZLEHURST     FAIR      34  21  58 CALM      30.21R
ALMA           CLEAR     28  23  81 CALM      30.23S
WAYCROSS       PTCLDY    34  26  71 CALM      30.24R
JESUP          FAIR      32  28  86 SW3       30.24R
BAXLEY         FAIR      32  28  86 CALM      30.22R
BRUNSWICK      CLEAR     36  25  64 W6        30.25R WCI  31
SAINT SIMONS   CLEAR     37  22  54 W5        30.24R WCI  33

$$

SCZ027-028-034-036>038-045-046-048>050-GAZ119-141-110900-
...LAKE AND SUPPLEMENTAL COASTAL OBSERVATIONS...

STATION/POSITION TIME  TEMP    WIND        PRES    WAVE   SWELL
                       AIR SEA DIR/SP/G            HT/PER HT/PER/DIR
                 (UTC) (F)     (DEG/KT/KT) (MB)    (FT/S) (FT/S/D)
WINYAH BAY       0700   32     250/  4     1020.0S
LAKE MURRAY      0700   33     270/ 10/ 14 1020.0R
ACE BASIN NERRS  0700   35     280/  3     1022.0
FORT PULASKI     0800   38 50  270/  9/ 10 1023.1R
SAPELO ISLAND    0800   39     250/  6     1023.0S

$$

ANZ835-935-AMZ111-154-330-350-352-354-370-450-454-472-110900-
...C-MAN AND BUOY OBSERVATIONS...

STATION/POSITION TIME  TEMP    WIND        PRES    WAVE   SWELL
                       AIR SEA DIR/SP/G            HT/PER HT/PER/DIR
                 (UTC) (F)     (DEG/KT/KT) (MB)    (FT/S) (FT/S/D)
BUOY 41004       0750   45 63  290/ 27/ 35 1020.6R   8/ 7
BUOY 41008       0750   44 52  290/ 19/ 21 1023.4R   3/ 3
FOLLY BEACH CMAN 0800   34     260/  5/  8 1022.2S
CAPERS NEARSHORE 0708   39     290/ 17/ 23 1021.2R
FRIPP NEARSHORE  0700   41     300/ 16/ 17 1021.9R


STATION/POSITION TIME  TEMP    WIND        PRES    WAVE   SWELL
                       AIR SEA DIR/SP/G            HT/PER HT/PER/DIR
                 (UTC) (F)     (DEG/KT/KT) (MB)    (FT/S) (FT/S/D)
5E ST. MARYS GA  0721      55                N/A     2/14   2/ 80/14
FRYING PAN BUOY  0800   42 59  290/ 23/ 29 1019.5R
BUOY 41025       0750   37 71  300/ 23/ 27 1017.2R   8/ 7   2/ 50/13
CAPE LOOKOUT NC  NOT AVBL
BUOY 41002       0750   54 68  290/ 25/ 33   N/A    14/10  10/260/10
BUOY 41010       0720   60 72              1021.8S
ST AUGUSTINE FL  0800   37 55  240/  4/  5 1025.7R


$$




USA.gov is the U.S. government's official web portal to all federal, state and local government web resources and services.